FW3613 Weather Reports


Display with metric or nautical units.
time (UTC)temp
F
wind
direction
speed
MPH
gust
MPH
rain 1hr
in
rain 24hr
in
rain mn
in
humidity
%
barometer
mb
20260507093553 53 180 0.0 0.0 0.00 0.00 0.00 77 1014.4
20260507093052 53 179 0.0 0.0 0.00 0.00 0.00 77 1014.4
20260507092551 54 180 0.0 0.0 0.00 0.00 0.00 76 1014.5
20260507092049 54 179 0.0 0.0 0.00 0.00 0.00 76 1014.4
20260507091550 54 180 0.0 0.0 0.00 0.00 0.00 76 1014.4
20260507091049 54 178 0.0 0.0 0.00 0.00 0.00 76 1014.4
20260507090548 54 179 0.0 0.0 0.00 0.00 0.00 76 1014.4
20260507090056 54 179 0.0 0.0 0.00 0.00 0.00 74 1014.4
20260507085545 55 180 0.0 0.0 0.00 0.00 0.00 73 1014.4
20260507085044 55 179 0.0 0.0 0.00 0.00 0.00 73 1014.4
20260507084551 55 179 0.0 0.0 0.00 0.00 0.00 72 1014.3
20260507084042 56 201 0.0 0.0 0.00 0.00 0.00 72 1014.1
20260507083542 56 201 0.0 0.0 0.00 0.00 0.00 71 1014.1
20260507083041 56 201 0.0 0.0 0.00 0.00 0.00 71 1014.0
20260507082538 56 201 0.0 0.0 0.00 0.00 0.00 70 1014.0
20260507082037 57 212 0.0 0.0 0.00 0.00 0.00 70 1014.1
20260507081536 57 212 0.0 0.0 0.00 0.00 0.00 69 1014.0
20260507081035 57 212 0.0 0.0 0.00 0.00 0.00 68 1014.0
20260507080535 57 212 0.0 0.0 0.00 0.00 0.00 67 1013.9
20260507080033 58 214 0.0 0.0 0.00 0.00 0.00 67 1013.9
20260507075531 58 214 0.0 0.0 0.00 0.00 0.00 66 1013.9
20260507075030 58 214 0.0 0.0 0.00 0.00 0.00 66 1013.9
20260507074529 59 214 0.0 0.0 0.00 0.00 0.00 64 1013.9
20260507074027 59 214 0.0 0.0 0.00 0.00 0.00 64 1013.7
20260507073528 59 214 0.0 0.0 0.00 0.00 0.00 63 1013.8
20260507073030 59 214 0.0 0.0 0.00 0.00 0.00 64 1013.7
20260507072528 59 214 0.0 0.0 0.00 0.00 0.00 64 1013.7
20260507072023 60 214 0.0 0.0 0.00 0.00 0.00 64 1013.9
20260507071528 60 214 0.0 1.0 0.00 0.00 0.00 62 1013.9
20260507071027 60 214 0.0 1.0 0.00 0.00 0.00 62 1013.8
20260507070521 61 214 0.0 0.0 0.00 0.00 0.00 62 1013.8
20260507070019 61 214 0.0 0.0 0.00 0.00 0.00 61 1013.9
20260507065519 61 214 0.0 0.0 0.00 0.00 0.00 61 1013.9
20260507065018 62 214 0.0 1.0 0.00 0.00 0.00 60 1013.9
20260507064528 62 214 0.0 1.0 0.00 0.00 0.00 58 1013.9
20260507064018 62 214 0.0 1.0 0.00 0.00 0.00 58 1013.7
20260507063516 62 214 0.0 1.0 0.00 0.00 0.00 58 1013.7
20260507063016 62 214 0.0 0.0 0.00 0.00 0.00 58 1013.7
20260507062521 62 214 0.0 0.0 0.00 0.00 0.00 59 1013.6
20260507062013 62 214 0.0 0.0 0.00 0.00 0.00 62 1013.7
20260507061515 62 214 0.0 0.0 0.00 0.00 0.00 62 1013.7
20260507061012 62 214 0.0 0.0 0.00 0.00 0.00 61 1013.6
20260507060511 62 214 0.0 0.0 0.00 0.00 0.00 60 1013.7
20260507060011 62 214 0.0 0.0 0.00 0.00 0.00 61 1013.6
20260507055511 62 217 0.0 0.0 0.00 0.00 0.00 61 1013.7
20260507055010 63 217 0.0 0.0 0.00 0.00 0.00 63 1013.7
20260507054509 64 217 0.0 0.0 0.00 0.00 0.00 60 1013.6
20260507054009 64 217 0.0 0.0 0.00 0.00 0.00 57 1013.6
20260507053509 64 217 0.0 0.0 0.00 0.00 0.00 56 1013.6
20260507053111 64 217 0.0 0.0 0.00 0.00 0.00 57 1013.6
20260507052507 64 217 0.0 0.0 0.00 0.00 0.00 56 1013.5
20260507052007 65 217 0.0 0.0 0.00 0.00 0.00 57 1013.5
20260507051507 65 217 0.0 0.0 0.00 0.00 0.00 56 1013.4
20260507051007 65 217 0.0 0.0 0.00 0.00 0.00 56 1013.4
20260507050509 65 217 0.0 0.0 0.00 0.00 0.00 55 1013.4
20260507050017 65 217 0.0 0.0 0.00 0.00 0.00 55 1013.2
20260507045512 65 217 0.0 0.0 0.00 0.00 0.00 57 1013.1
20260507045006 65 217 0.0 0.0 0.00 0.00 0.00 57 1013.0
20260507044506 65 217 0.0 0.0 0.00 0.00 0.00 56 1013.0
20260507044006 66 217 0.0 0.0 0.00 0.00 0.00 56 1013.0
20260507043505 66 217 0.0 0.0 0.00 0.00 0.00 56 1013.0
20260507043005 66 217 0.0 0.0 0.00 0.00 0.00 54 1013.0
20260507042505 67 217 0.0 1.0 0.00 0.00 0.00 54 1013.0
20260507042004 66 217 0.0 2.0 0.00 0.00 0.00 54 1013.0
20260507041515 66 274 0.0 2.0 0.00 0.00 0.00 53 1012.9
20260507041004 66 136 0.0 1.0 0.00 0.00 0.00 52 1012.8
20260507040504 67 136 0.0 1.0 0.00 0.00 0.00 51 1012.9
20260507040004 67 136 0.0 1.0 0.00 0.00 0.00 51 1012.9
20260507035504 68 136 0.0 1.0 0.00 0.00 0.00 51 1012.7
20260507035004 68 136 0.0 1.0 0.00 0.00 0.00 51 1012.7
20260507034504 68 136 0.0 1.0 0.00 0.00 0.00 50 1012.7
20260507034004 68 136 0.0 1.0 0.00 0.00 0.00 49 1012.6
20260507033504 69 136 0.0 1.0 0.00 0.00 0.00 48 1012.7
20260507033003 69 124 0.0 1.0 0.00 0.00 0.00 48 1012.6
20260507032502 69 131 0.0 0.0 0.00 0.00 0.00 46 1012.6
20260507032002 69 131 0.0 1.0 0.00 0.00 0.00 49 1012.5
20260507031506 70 131 0.0 1.0 0.00 0.00 0.00 47 1012.6
20260507031002 70 126 0.0 1.0 0.00 0.00 0.00 46 1012.4
20260507030504 71 126 0.0 1.0 0.00 0.00 0.00 45 1012.4
20260507030003 71 126 0.0 0.0 0.00 0.00 0.00 49 1012.4
20260507025502 71 125 0.0 0.0 0.00 0.00 0.00 46 1012.4
20260507025001 71 125 0.0 0.0 0.00 0.00 0.00 45 1012.5
20260507024504 71 125 0.0 0.0 0.00 0.00 0.00 44 1012.6
20260507024001 72 125 0.0 0.0 0.00 0.00 0.00 46 1012.6
20260507023503 72 125 0.0 0.0 0.00 0.00 0.00 45 1012.6
20260507023000 72 125 0.0 0.0 0.00 0.00 0.00 44 1012.6
20260507022600 73 125 0.0 1.0 0.00 0.00 0.00 43 1012.6
20260507022100 73 126 0.0 1.0 0.00 0.00 0.00 40 1012.6
20260507021559 73 127 0.0 1.0 0.00 0.00 0.00 41 1012.7
20260507021059 74 127 0.0 0.0 0.00 0.00 0.00 41 1012.8
20260507020559 74 127 0.0 0.0 0.00 0.00 0.00 40 1012.8
20260507020118 74 127 0.0 0.0 0.00 0.00 0.00 39 1012.9
20260507015558 75 127 0.0 1.0 0.00 0.00 0.00 38 1012.9
20260507015057 76 127 0.0 1.0 0.00 0.00 0.00 35 1012.9
20260507014600 76 288 0.0 1.0 0.00 0.00 0.00 31 1013.0
20260507014057 77 288 0.0 1.0 0.00 0.00 0.00 31 1013.0
20260507013557 77 287 0.0 2.0 0.00 0.00 0.00 31 1013.0
20260507013057 77 285 0.0 2.0 0.00 0.00 0.00 30 1013.1
20260507012559 77 264 0.0 0.0 0.00 0.00 0.00 29 1013.1
20260507012057 77 264 0.0 0.0 0.00 0.00 0.00 29 1013.2
20260507011555 77 277 0.0 0.0 0.00 0.00 0.00 29 1013.2
20260507011055 77 277 0.0 0.0 0.00 0.00 0.00 29 1013.2
20260507010555 77 277 0.0 1.0 0.00 0.00 0.00 29 1013.2
20260507010109 77 277 0.0 1.0 0.00 0.00 0.00 29 1013.3
20260507005554 77 276 0.0 3.0 0.00 0.00 0.00 29 1013.3
20260507005055 77 277 0.0 3.0 0.00 0.00 0.00 29 1013.5
20260507004553 77 285 0.0 2.0 0.00 0.00 0.00 28 1013.5
20260507004053 77 291 0.0 4.0 0.00 0.00 0.00 29 1013.6
20260507003553 77 285 1.0 4.0 0.00 0.00 0.00 29 1013.6
20260507003052 77 333 0.0 3.0 0.00 0.00 0.00 28 1013.6
20260507002552 77 282 1.0 4.0 0.00 0.00 0.00 28 1013.7
20260507002052 77 290 0.0 4.0 0.00 0.00 0.00 28 1013.7
20260507001556 78 290 0.0 4.0 0.00 0.00 0.00 28 1013.7
20260507001051 78 280 1.0 4.0 0.00 0.00 0.00 27 1013.7
20260507000553 77 288 1.0 3.0 0.00 0.00 0.00 27 1013.7
20260507000051 78 287 0.0 3.0 0.00 0.00 0.00 27 1013.8
20260506235550 78 296 0.0 7.0 0.00 0.00 0.00 27 1013.8
20260506235050 78 288 3.0 7.0 0.00 0.00 0.00 27 1013.9
20260506234555 79 289 2.0 9.0 0.00 0.00 0.00 26 1014.0
20260506234050 79 290 1.0 9.0 0.00 0.00 0.00 26 1014.1
20260506233553 79 301 0.0 5.0 0.00 0.00 0.00 26 1014.1
20260506233048 79 291 2.0 5.0 0.00 0.00 0.00 27 1014.3
20260506232547 79 288 1.0 4.0 0.00 0.00 0.00 27 1014.3
20260506232048 78 289 1.0 4.0 0.00 0.00 0.00 26 1014.4
20260506231604 78 291 1.0 4.0 0.00 0.00 0.00 26 1014.5
20260506231046 78 71 0.0 4.0 0.00 0.00 0.00 27 1014.6
20260506230545 78 283 2.0 5.0 0.00 0.00 0.00 26 1014.7
20260506230104 77 120 1.0 5.0 0.00 0.00 0.00 26 1014.8
20260506225545 78 257 1.0 4.0 0.00 0.00 0.00 26 1015.0
20260506225045 78 288 2.0 4.0 0.00 0.00 0.00 25 1015.1
20260506224544 78 123 0.0 6.0 0.00 0.00 0.00 26 1015.2
20260506224042 77 115 1.0 6.0 0.00 0.00 0.00 27 1015.3
20260506223545 77 294 0.0 8.0 0.00 0.00 0.00 27 1015.4
20260506223042 77 290 3.0 8.0 0.00 0.00 0.00 26 1015.5
20260506222541 77 269 1.0 7.0 0.00 0.00 0.00 26 1015.6
20260506222044 77 296 2.0 6.0 0.00 0.00 0.00 26 1015.7
20260506221544 77 307 1.0 4.0 0.00 0.00 0.00 25 1015.8
20260506221042 77 285 0.0 4.0 0.00 0.00 0.00 25 1015.9
20260506220540 76 284 1.0 5.0 0.00 0.00 0.00 24 1016.1
20260506220045 77 305 1.0 5.0 0.00 0.00 0.00 25 1016.1
20260506215538 77 280 2.0 5.0 0.00 0.00 0.00 23 1016.2
20260506215037 77 297 1.0 4.0 0.00 0.00 0.00 23 1016.3
20260506214539 76 82 1.0 4.0 0.00 0.00 0.00 23 1016.4
20260506214037 76 281 1.0 4.0 0.00 0.00 0.00 23 1016.5
20260506213537 76 290 2.0 4.0 0.00 0.00 0.00 24 1016.5
20260506213038 75 114 0.0 5.0 0.00 0.00 0.00 25 1016.6
20260506212534 76 263 1.0 6.0 0.00 0.00 0.00 24 1016.7
20260506212034 75 295 1.0 6.0 0.00 0.00 0.00 24 1016.7
20260506211536 76 285 1.0 5.0 0.00 0.00 0.00 23 1016.9
20260506211034 75 87 0.0 4.0 0.00 0.00 0.00 24 1017.0
20260506210534 75 111 1.0 4.0 0.00 0.00 0.00 23 1017.1
20260506210034 75 283 0.0 2.0 0.00 0.00 0.00 24 1017.1
20260506205530 74 120 0.0 3.0 0.00 0.00 0.00 26 1017.2
20260506205030 74 191 0.0 3.0 0.00 0.00 0.00 24 1017.2
20260506204534 73 25 0.0 4.0 0.00 0.00 0.00 25 1017.2
20260506204030 72 300 0.0 4.0 0.00 0.00 0.00 25 1017.3
20260506203529 72 297 0.0 5.0 0.00 0.00 0.00 24 1017.4
20260506203031 73 297 2.0 5.0 0.00 0.00 0.00 23 1017.4
20260506202528 73 115 1.0 3.0 0.00 0.00 0.00 24 1017.4
20260506202027 73 108 0.0 3.0 0.00 0.00 0.00 25 1017.4
20260506201536 73 141 0.0 3.0 0.00 0.00 0.00 24 1017.5
20260506201026 73 132 1.0 4.0 0.00 0.00 0.00 24 1017.6
20260506200525 72 338 1.0 4.0 0.00 0.00 0.00 25 1017.6
20260506200024 72 131 1.0 4.0 0.00 0.00 0.00 25 1017.7
20260506195523 71 293 0.0 2.0 0.00 0.00 0.00 25 1017.7
20260506195023 71 277 0.0 3.0 0.00 0.00 0.00 24 1017.8
20260506194522 71 243 1.0 3.0 0.00 0.00 0.00 24 1017.8
20260506194024 71 297 0.0 2.0 0.00 0.00 0.00 24 1017.9
20260506193520 70 285 0.0 4.0 0.00 0.00 0.00 25 1018.0
20260506193024 70 287 1.0 5.0 0.00 0.00 0.00 25 1018.1
20260506192519 71 276 1.0 5.0 0.00 0.00 0.00 24 1018.1
20260506192021 70 115 0.0 4.0 0.00 0.00 0.00 24 1018.1
20260506191518 70 90 1.0 4.0 0.00 0.00 0.00 25 1018.3
20260506191018 70 78 0.0 4.0 0.00 0.00 0.00 26 1018.4
20260506190516 69 114 1.0 5.0 0.00 0.00 0.00 26 1018.5
20260506190023 69 103 1.0 5.0 0.00 0.00 0.00 26 1018.5
20260506185513 69 131 0.0 4.0 0.00 0.00 0.00 25 1018.6
20260506185013 68 181 1.0 5.0 0.00 0.00 0.00 26 1018.6
20260506184519 68 136 2.0 5.0 0.00 0.00 0.00 26 1018.7
20260506184011 68 235 0.0 5.0 0.00 0.00 0.00 26 1018.7
20260506183511 67 86 1.0 5.0 0.00 0.00 0.00 26 1018.9
20260506183010 67 124 0.0 5.0 0.00 0.00 0.00 26 1018.9
20260506182507 66 118 2.0 6.0 0.00 0.00 0.00 27 1018.9
20260506182006 66 136 1.0 6.0 0.00 0.00 0.00 27 1018.9
20260506181505 65 100 1.0 5.0 0.00 0.00 0.00 27 1018.9
20260506181008 65 131 2.0 6.0 0.00 0.00 0.00 27 1019.0
20260506180504 65 109 2.0 6.0 0.00 0.00 0.00 28 1019.1
20260506180005 65 27 1.0 6.0 0.00 0.00 0.00 27 1019.1
20260506175502 65 148 1.0 6.0 0.00 0.00 0.00 28 1019.2
20260506175001 65 125 2.0 4.0 0.00 0.00 0.00 30 1019.2
20260506174502 64 120 2.0 5.0 0.00 0.00 0.00 29 1019.2
20260506174001 64 115 2.0 5.0 0.00 0.00 0.00 30 1019.1
20260506173501 63 81 2.0 5.0 0.00 0.00 0.00 29 1019.2
20260506173101 63 103 1.0 5.0 0.00 0.00 0.00 29 1019.2
20260506172600 63 111 2.0 6.0 0.00 0.00 0.00 31 1019.2
20260506172059 63 280 2.0 6.0 0.00 0.00 0.00 30 1019.2
20260506171608 62 112 2.0 8.0 0.00 0.00 0.00 30 1019.2
20260506171100 62 86 2.0 8.0 0.00 0.00 0.00 32 1019.2
20260506170559 62 42 3.0 7.0 0.00 0.00 0.00 31 1019.2
20260506170100 62 21 2.0 8.0 0.00 0.00 0.00 32 1019.2
20260506165601 61 111 2.0 8.0 0.00 0.00 0.00 31 1019.2
20260506165058 61 94 2.0 8.0 0.00 0.00 0.00 33 1019.3
20260506164559 61 88 3.0 8.0 0.00 0.00 0.00 32 1019.4
20260506164058 60 120 3.0 5.0 0.00 0.00 0.00 33 1019.3
20260506163557 60 137 3.0 5.0 0.00 0.00 0.00 33 1019.3
20260506163107 59 96 2.0 6.0 0.00 0.00 0.00 34 1019.5
20260506162557 59 124 2.0 6.0 0.00 0.00 0.00 34 1019.5
20260506162100 59 62 4.0 8.0 0.00 0.00 0.00 34 1019.5
20260506161557 59 20 3.0 8.0 0.00 0.00 0.00 35 1019.5
20260506161056 58 34 3.0 8.0 0.00 0.00 0.00 35 1019.6
20260506160557 58 47 3.0 7.0 0.00 0.00 0.00 34 1019.7
20260506160108 58 60 4.0 9.0 0.00 0.00 0.00 35 1019.6
20260506155556 58 129 4.0 9.0 0.00 0.00 0.00 35 1019.6
20260506155056 57 114 3.0 6.0 0.00 0.00 0.00 35 1019.7
20260506154556 57 84 2.0 8.0 0.00 0.00 0.00 35 1019.7
20260506154100 57 19 1.0 8.0 0.00 0.00 0.00 35 1019.7
20260506153556 57 53 1.0 5.0 0.00 0.00 0.00 36 1019.6
20260506153055 56 143 2.0 7.0 0.00 0.00 0.00 35 1019.7
20260506152555 56 28 3.0 8.0 0.00 0.00 0.00 34 1019.7
20260506152055 56 138 3.0 8.0 0.00 0.00 0.00 34 1019.7
20260506151557 56 111 1.0 7.0 0.00 0.00 0.00 36 1019.7
20260506151054 55 103 2.0 7.0 0.00 0.00 0.00 35 1019.7
20260506150554 55 50 2.0 7.0 0.00 0.00 0.00 35 1019.7
20260506150056 55 89 2.0 5.0 0.00 0.00 0.00 35 1019.7
20260506145554 55 128 2.0 7.0 0.00 0.00 0.00 35 1019.7
20260506145052 55 101 3.0 7.0 0.00 0.00 0.00 35 1019.6
20260506144601 55 44 3.0 8.0 0.00 0.00 0.00 36 1019.6
20260506144051 54 49 2.0 8.0 0.00 0.00 0.00 36 1019.5
20260506143551 54 8 2.0 5.0 0.00 0.00 0.00 37 1019.5
20260506143051 54 117 2.0 4.0 0.00 0.00 0.00 38 1019.5
20260506142551 53 98 2.0 6.0 0.00 0.00 0.00 38 1019.5
20260506142049 53 117 2.0 6.0 0.00 0.00 0.00 38 1019.5
20260506141550 53 104 3.0 6.0 0.00 0.00 0.00 39 1019.5
20260506141149 53 148 3.0 6.0 0.00 0.00 0.00 39 1019.4
20260506140549 52 128 2.0 5.0 0.00 0.00 0.00 41 1019.3
20260506140049 52 124 2.0 5.0 0.00 0.00 0.00 41 1019.3
20260506135549 52 66 1.0 5.0 0.00 0.00 0.00 42 1019.3
20260506135048 51 98 1.0 5.0 0.00 0.00 0.00 42 1019.3
20260506134548 51 86 2.0 5.0 0.00 0.00 0.00 43 1019.3
20260506134048 51 103 1.0 5.0 0.00 0.00 0.00 44 1019.2
20260506133547 50 63 1.0 5.0 0.00 0.00 0.00 44 1019.2
20260506133046 50 121 1.0 4.0 0.00 0.00 0.00 45 1019.1
20260506132547 49 63 1.0 2.0 0.00 0.00 0.00 46 1019.0
20260506132044 49 65 0.0 2.0 0.00 0.00 0.00 47 1019.0
20260506131552 49 54 0.0 2.0 0.00 0.00 0.00 47 1018.8
20260506131044 48 70 1.0 2.0 0.00 0.00 0.00 47 1018.8
20260506130544 49 120 0.0 2.0 0.00 0.00 0.00 47 1018.8
20260506130046 49 47 1.0 2.0 0.00 0.00 0.00 46 1018.7
20260506125541 49 75 1.0 3.0 0.00 0.00 0.00 45 1018.7
20260506125041 49 114 1.0 4.0 0.00 0.00 0.00 45 1018.7
20260506124541 49 75 1.0 5.0 0.00 0.00 0.00 45 1018.6
20260506124040 49 30 3.0 6.0 0.00 0.00 0.00 45 1018.5
20260506123539 49 109 2.0 6.0 0.00 0.00 0.00 45 1018.3
20260506123038 48 330 0.0 3.0 0.00 0.00 0.00 46 1018.5
20260506122536 49 77 0.0 3.0 0.00 0.00 0.00 46 1018.4
20260506122037 49 128 0.0 2.0 0.00 0.00 0.00 47 1018.5
20260506121536 49 98 0.0 2.0 0.00 0.00 0.00 46 1018.4
20260506121036 49 82 0.0 2.0 0.00 0.00 0.00 46 1018.4
20260506120535 49 111 0.0 2.0 0.00 0.00 0.00 45 1018.3
20260506120031 50 81 1.0 2.0 0.00 0.00 0.00 45 1018.3
20260506115531 50 99 0.0 4.0 0.00 0.00 0.00 45 1018.1
20260506115029 50 114 1.0 4.0 0.00 0.00 0.00 44 1018.0
20260506114537 50 62 2.0 3.0 0.00 0.00 0.00 44 1018.0
20260506114028 50 111 1.0 2.0 0.00 0.00 0.00 45 1018.0
20260506113528 50 126 1.0 4.0 0.00 0.00 0.00 44 1018.0
20260506113028 50 84 2.0 4.0 0.00 0.00 0.00 44 1018.1
20260506112526 50 86 2.0 4.0 0.00 0.00 0.00 44 1018.1
20260506112026 50 25 1.0 4.0 0.00 0.00 0.00 44 1018.1
20260506111526 50 82 2.0 4.0 0.00 0.00 0.00 44 1018.1
20260506111026 50 97 0.0 3.0 0.00 0.00 0.00 45 1018.1
20260506110526 50 95 0.0 3.0 0.00 0.00 0.00 44 1018.1
20260506110024 51 66 1.0 4.0 0.00 0.00 0.00 44 1017.9
20260506105527 51 123 1.0 4.0 0.00 0.00 0.00 44 1017.8
20260506105021 51 101 1.0 4.0 0.00 0.00 0.00 43 1017.8
20260506104520 51 105 1.0 4.0 0.00 0.00 0.00 43 1017.6
20260506104019 51 62 1.0 3.0 0.00 0.00 0.00 43 1017.6
20260506103521 51 111 1.0 4.0 0.00 0.00 0.00 43 1017.4
20260506103017 51 38 2.0 4.0 0.00 0.00 0.00 43 1017.4
20260506102515 52 54 0.0 5.0 0.00 0.00 0.00 42 1017.1
20260506102015 52 81 2.0 5.0 0.00 0.00 0.00 42 1017.0
20260506101517 52 122 2.0 9.0 0.00 0.00 0.00 42 1017.1
20260506101011 52 100 3.0 9.0 0.00 0.00 0.00 42 1017.0
20260506100511 52 131 2.0 6.0 0.00 0.00 0.00 42 1016.9
20260506100021 52 45 1.0 6.0 0.00 0.00 0.00 42 1016.7
20260506095509 52 72 3.0 6.0 0.00 0.00 0.00 41 1016.8
20260506095009 52 75 2.0 6.0 0.00 0.00 0.00 41 1016.7
20260506094506 53 97 1.0 6.0 0.00 0.00 0.00 41 1016.7
20260506094007 53 136 1.0 7.0 0.00 0.00 0.00 41 1016.6